User: anonymous   Login
Location: Gouy
(50.0008°N, 3.2556°E)
Time: 08:55:23
(UTC+00:00)
Language:

CRYOSAT 2 - Orbit

View from above orbital plane
View from above orbital plane
View from above satellite
View from above satellite

Ground track
Ground track

The orbit data is extracted from the following two-line orbital elements,

1 36508U 10013A   24203.88554357  .00000481  00000-0  11866-3 0  9991
2 36508  92.0329 109.4555 0003943 128.5273 231.6288 14.51907912757193
Epoch (UTC): 21 July 2024 21:15:10
Eccentricity: 0.0003943
inclination: 92.0329°
perigee height: 716 km
apogee height: 722 km
right ascension of ascending node: 109.4555°
argument of perigee: 128.5273°
revolutions per day: 14.51907912
mean anomaly at epoch: 231.6288°
orbit number at epoch: 75719

The dashed part of the orbit path shows where the satellite is in the earth's shadow,  

DLR